FW5821 Weather Reports


Display with metric or nautical units.
time (UTC)temp
F
wind
direction
speed
MPH
gust
MPH
rain 1hr
in
rain 24hr
in
rain mn
in
humidity
%
barometer
mb
20260506013124 49 3 0.0 0.0 0.00 0.01 0.00 83 1007.7
20260506012126 49 6 0.0 0.0 0.00 0.01 0.00 83 1007.7
20260506011124 50 17 0.0 0.0 0.00 0.01 0.00 82 1007.8
20260506010124 50 25 0.0 0.0 0.00 0.01 0.00 82 1007.8
20260506005124 50 27 0.0 0.0 0.00 0.01 0.00 82 1007.8
20260506004123 50 38 0.0 0.0 0.00 0.02 0.00 81 1007.9
20260506002126 50 0 0.0 0.0 0.00 0.02 0.00 80 1008.0
20260506001124 51 4 0.0 0.0 0.00 0.02 0.00 80 1008.0
20260506000126 51 11 0.0 0.0 0.00 0.03 0.00 79 1008.1
20260505235124 51 32 0.0 0.0 0.00 0.04 0.00 79 1008.2
20260505234125 51 17 0.0 0.0 0.00 0.04 0.00 79 1008.3
20260505233124 51 39 0.0 0.0 0.00 0.05 0.00 79 1008.3
20260505232125 51 0 0.0 0.0 0.00 0.05 0.00 78 1008.3
20260505231122 51 30 0.0 0.0 0.00 0.05 0.00 78 1008.4
20260505230123 51 1 0.0 0.0 0.00 0.05 0.00 78 1008.4
20260505224123 51 23 0.0 0.0 0.00 0.05 0.00 78 1008.5
20260505223122 51 1 0.0 0.0 0.00 0.05 0.00 78 1008.7
20260505222123 51 13 0.0 0.0 0.00 0.05 0.00 78 1008.8
20260505221126 51 13 0.0 0.0 0.00 0.05 0.00 77 1008.8
20260505220124 51 10 0.0 0.0 0.00 0.05 0.00 77 1008.8
20260505215124 51 0 0.0 0.0 0.00 0.05 0.05 77 1008.9
20260505214122 52 37 0.0 0.0 0.00 0.05 0.05 78 1008.9
20260505212125 52 20 0.0 0.0 0.00 0.05 0.05 78 1009.0
20260505211122 52 6 0.0 0.0 0.00 0.05 0.05 78 1009.1
20260505210124 52 14 0.0 0.0 0.00 0.05 0.05 78 1009.1
20260505205121 52 10 0.0 0.0 0.00 0.05 0.05 78 1009.2
20260505204123 52 25 0.0 0.0 0.00 0.05 0.05 79 1009.2
20260505203121 52 14 0.0 0.0 0.00 0.05 0.05 79 1009.1
20260505202122 52 10 0.0 0.0 0.00 0.06 0.05 80 1009.3
20260505201120 52 58 0.0 0.0 0.00 0.06 0.05 79 1009.2
20260505200121 53 28 0.0 0.0 0.00 0.06 0.05 79 1009.2
20260505195120 53 30 0.0 0.0 0.00 0.06 0.05 78 1009.2
20260505194120 53 18 0.0 0.0 0.00 0.06 0.05 78 1009.0
20260505193124 53 18 0.0 0.0 0.00 0.09 0.05 77 1009.0
20260505192119 53 17 0.0 0.0 0.00 0.09 0.05 77 1008.9
20260505191119 53 10 0.0 0.0 0.00 0.09 0.05 77 1008.7
20260505190121 53 24 0.0 0.0 0.00 0.09 0.05 77 1008.7
20260505185116 54 35 0.0 0.0 0.00 0.09 0.05 77 1008.7
20260505184117 54 17 0.0 0.0 0.00 0.09 0.05 77 1008.7
20260505183117 54 17 0.0 0.0 0.00 0.09 0.05 76 1008.6
20260505181115 55 51 0.0 0.0 0.00 0.09 0.05 75 1008.5
20260505175114 56 35 0.0 0.0 0.00 0.09 0.05 74 1008.5
20260505174114 56 38 0.0 0.0 0.00 0.09 0.05 73 1008.4
20260505173113 56 11 0.0 0.0 0.00 0.09 0.05 73 1008.5
20260505172117 57 27 0.0 0.0 0.00 0.09 0.05 72 1008.5
20260505171114 57 65 0.0 0.0 0.00 0.09 0.05 74 1008.4
20260505165113 56 69 0.0 0.0 0.00 0.09 0.05 76 1008.5
20260505164114 56 45 0.0 0.0 0.00 0.09 0.05 75 1008.6
20260505163114 55 44 0.0 0.0 0.00 0.09 0.05 75 1008.8
20260505162114 55 27 0.0 0.0 0.00 0.09 0.05 76 1008.8
20260505161113 55 55 0.0 0.0 0.00 0.09 0.05 76 1008.8
20260505160114 55 65 0.0 0.0 0.00 0.09 0.05 77 1009.0
20260505153112 55 51 0.0 0.0 0.00 0.09 0.05 78 1009.1
20260505151111 55 27 0.0 0.0 0.00 0.09 0.05 78 1009.2
20260505150110 55 0 0.0 0.0 0.00 0.09 0.05 78 1009.2
20260505140105 54 21 0.0 0.0 0.00 0.09 0.05 80 1009.5
20260505130104 54 27 0.0 0.0 0.00 0.09 0.05 81 1010.0
20260505124104 54 48 0.0 0.0 0.00 0.09 0.05 80 1010.0
20260505123101 54 10 0.0 0.0 0.00 0.09 0.05 80 1010.1
20260505122057 54 27 0.0 0.0 0.00 0.09 0.05 81 1010.1
20260505121056 54 49 0.0 0.0 0.00 0.09 0.05 82 1010.1
20260505120053 54 41 0.0 0.0 0.00 0.09 0.05 81 1010.1
20260505115056 54 51 0.0 0.0 0.00 0.09 0.05 81 1010.1
20260505112050 53 56 0.0 0.0 0.00 0.09 0.05 81 1010.4
20260505102041 52 25 0.0 0.0 0.00 0.09 0.05 85 1010.5
20260505101041 52 25 0.0 0.0 0.00 0.09 0.05 85 1010.7
20260505095037 51 42 0.0 0.0 0.00 0.09 0.05 86 1010.8
20260505094035 51 18 0.0 0.0 0.00 0.09 0.05 86 1010.7
20260505093033 51 13 0.0 0.0 0.00 0.09 0.05 87 1010.8
20260505092037 50 23 0.0 0.0 0.00 0.09 0.05 87 1010.8
20260505091035 50 49 0.0 0.0 0.00 0.09 0.05 87 1010.8
20260505090037 50 27 0.0 0.0 0.00 0.09 0.05 87 1010.8
20260505085034 50 48 0.0 0.0 0.00 0.09 0.05 87 1010.8
20260505084033 50 44 0.0 0.0 0.00 0.09 0.05 87 1010.8
20260505083036 50 42 0.0 0.0 0.00 0.09 0.05 87 1010.8
20260505082034 50 17 0.0 0.0 0.00 0.09 0.05 88 1010.8
20260505081033 50 41 0.0 0.0 0.00 0.09 0.05 88 1010.9
20260505080049 50 44 0.0 0.0 0.00 0.09 0.05 88 1010.9
20260505075034 50 23 0.0 0.0 0.00 0.09 0.05 88 1010.8
20260505074032 50 0 0.0 0.0 0.00 0.09 0.05 89 1010.7
20260505073035 50 27 0.0 0.0 0.00 0.09 0.05 88 1010.7
20260505071032 49 0 0.0 0.0 0.00 0.09 0.05 88 1010.9
20260505070031 49 28 0.0 0.0 0.00 0.09 0.05 88 1010.9
20260505065027 50 25 0.0 0.0 0.00 0.09 0.05 88 1010.9
20260505064028 50 20 0.0 0.0 0.00 0.09 0.05 88 1011.0
20260505063026 49 47 0.0 0.0 0.00 0.09 0.05 88 1011.0
20260505062025 49 27 0.0 0.0 0.00 0.09 0.05 88 1011.0
20260505061021 49 0 0.0 0.0 0.00 0.09 0.05 88 1011.2
20260505060022 49 23 0.0 0.0 0.00 0.09 0.05 88 1011.3
20260505055015 49 39 0.0 0.0 0.00 0.09 0.05 88 1011.2
20260505054016 49 44 0.0 0.0 0.00 0.09 0.05 89 1011.1
20260505052011 49 42 0.0 0.0 0.00 0.09 0.05 89 1010.9
20260505041006 50 48 0.0 0.0 0.00 0.09 0.05 89 1010.7
20260505035005 50 10 0.0 0.0 0.00 0.09 0.05 89 1010.7
20260505034005 50 10 0.0 0.0 0.00 0.09 0.05 89 1010.8
20260505033008 50 8 0.0 0.0 0.01 0.09 0.05 89 1010.7
20260505032004 50 0 0.0 0.0 0.01 0.09 0.05 89 1010.8
20260505031007 50 20 0.0 0.0 0.01 0.09 0.05 89 1010.7
20260505030008 50 62 0.0 0.0 0.01 0.09 0.04 89 1010.8
20260505025006 51 31 0.0 0.0 0.01 0.09 0.05 89 1010.8
20260505024004 51 27 0.0 0.0 0.01 0.09 0.05 89 1010.9
20260505023004 51 21 0.0 0.0 0.00 0.08 0.04 88 1010.9
20260505022002 51 20 0.0 0.0 0.00 0.08 0.04 89 1010.9
20260505020000 52 38 0.0 0.0 0.00 0.08 0.04 88 1011.0
20260505014958 52 17 0.0 0.0 0.01 0.08 0.04 88 1010.9
20260505013956 52 14 0.0 0.0 0.01 0.08 0.04 88 1010.9